Location: Riverside Cemetery
(38.3047°N, 99.7773°W)
Time: 00:16:23
(UTC+00:00)

Cosmos 2285 Rocket - Pass Details

Date: 19 September 2020
Orbit: 970 x 1000 km, 74.0° (Epoch: 23 October)

Event Time Altitude Azimuth Distance (km) Brightness Sun altitude
Rises 02:28:40 0° 185° (S) 3,646 6.9 -21.4°
Reaches altitude 10° 02:31:12 10° 182° (S) 2,704 6.1 -21.9°
Maximum altitude 02:37:21 61° 104° (ESE) 1,100 3.9 -23.0°
Drops below altitude 10° 02:43:33 10° 26° (NNE) 2,735 6.3 -24.1°
Sets 02:46:08 0° 23° (NNE) 3,691 7.0 -24.6°
